Wetterdaten: aktuell Montag, 13.07.2020 09:50
Datum Zeit Temp. 2m Temp. 5cm Temp. -10cm Feuchte 2m Luftdruck Regen Wind Richtung Richtung Taupunkt Windchill Windben
13.07.2020 09:50 17,2 C 23,3 C 15,2 C 63 % 1024,8 hPa 0,0 l/m 6,3 km/h (2 Bft) W-SW 247 10,1 C 17,2 C 7,0 km/h (2 Bft)
13.07.2020 09:48 17,3 C 24,2 C 15,2 C 63 % 1024,8 hPa 0,0 l/m 5,3 km/h (1 Bft) W-SW 247 10,2 C 17,3 C 12,9 km/h (3 Bft)
13.07.2020 09:46 17,4 C 24,3 C 15,2 C 64 % 1024,8 hPa 0,0 l/m 4,3 km/h (1 Bft) S 180 10,5 C 17,4 C 5,8 km/h (2 Bft)
13.07.2020 09:44 17,4 C 24,7 C 15,1 C 65 % 1024,8 hPa 0,0 l/m 4,2 km/h (1 Bft) W 270 10,8 C 17,4 C 7,0 km/h (2 Bft)
13.07.2020 09:42 17,5 C 24,7 C 15,1 C 66 % 1024,8 hPa 0,0 l/m 4,3 km/h (1 Bft) W 270 11,1 C 17,5 C 11,4 km/h (2 Bft)
13.07.2020 09:40 17,5 C 24,6 C 15,1 C 67 % 1024,8 hPa 0,0 l/m 3,9 km/h (1 Bft) N-NW 337 11,3 C 17,5 C 7,3 km/h (2 Bft)
13.07.2020 09:38 17,5 C 24,6 C 15,1 C 67 % 1024,9 hPa 0,0 l/m 3,9 km/h (1 Bft) SO 135 11,3 C 17,5 C 0,0 km/h (0 Bft)
13.07.2020 09:36 17,1 C 24,0 C 15,1 C 66 % 1024,9 hPa 0,0 l/m 4,8 km/h (1 Bft) S-SO 157 10,7 C 17,1 C 13,7 km/h (3 Bft)
13.07.2020 09:34 16,9 C 23,9 C 15,1 C 68 % 1024,9 hPa 0,0 l/m 4,5 km/h (1 Bft) S-SW 202 11,0 C 16,9 C 7,3 km/h (2 Bft)
13.07.2020 09:32 17,1 C 23,3 C 15,1 C 69 % 1024,9 hPa 0,0 l/m 4,2 km/h (1 Bft) W 270 11,4 C 17,1 C 10,0 km/h (2 Bft)
13.07.2020 09:30 17,1 C 23,2 C 15,1 C 70 % 1024,9 hPa 0,0 l/m 3,4 km/h (1 Bft) W-NW 292 11,6 C 17,1 C 5,8 km/h (2 Bft)
13.07.2020 09:28 16,9 C 23,2 C 15,1 C 71 % 1024,9 hPa 0,0 l/m 3,2 km/h (1 Bft) N-NW 337 11,6 C 16,9 C 7,3 km/h (2 Bft)
13.07.2020 09:26 16,9 C 23,5 C 15,1 C 72 % 1024,9 hPa 0,0 l/m 2,6 km/h (1 Bft) W-NW 292 11,8 C 16,9 C 9,7 km/h (2 Bft)
13.07.2020 09:24 16,9 C 23,9 C 15,0 C 73 % 1024,9 hPa 0,0 l/m 2,4 km/h (1 Bft) W 270 12,0 C 16,9 C 3,5 km/h (1 Bft)
13.07.2020 09:22 16,8 C 23,8 C 15,0 C 74 % 1024,9 hPa 0,0 l/m 2,3 km/h (1 Bft) W-NW 292 12,1 C 16,8 C 9,1 km/h (2 Bft)
13.07.2020 09:20 16,8 C 23,4 C 15,0 C 75 % 1024,9 hPa 0,0 l/m 1,4 km/h (1 Bft) W-NW 292 12,3 C 16,8 C 3,3 km/h (1 Bft)
13.07.2020 09:18 16,7 C 22,8 C 15,0 C 75 % 1025,1 hPa 0,0 l/m 1,1 km/h (1 Bft) W 270 12,2 C 16,7 C 2,9 km/h (1 Bft)
13.07.2020 09:16 16,3 C 22,7 C 15,0 C 75 % 1025,1 hPa 0,0 l/m 0,8 km/h (0 Bft) W-NW 292 11,9 C 16,3 C 3,5 km/h (1 Bft)
13.07.2020 09:14 16,1 C 22,5 C 15,0 C 76 % 1025,1 hPa 0,0 l/m 0,5 km/h (0 Bft) W-NW 292 11,9 C 16,1 C 4,8 km/h (1 Bft)
13.07.2020 09:12 15,9 C 22,3 C 15,0 C 77 % 1025,1 hPa 0,0 l/m 0,0 km/h (0 Bft) NW 315 11,9 C 15,9 C 0,0 km/h (0 Bft)
13.07.2020 09:10 15,6 C 22,2 C 15,0 C 78 % 1025,1 hPa 0,0 l/m 0,0 km/h (0 Bft) NW 315 11,8 C 15,6 C 0,0 km/h (0 Bft)
13.07.2020 09:08 15,3 C 21,8 C 15,0 C 78 % 1025,1 hPa 0,0 l/m 0,0 km/h (0 Bft) N-NW 337 11,5 C 15,3 C 0,0 km/h (0 Bft)
13.07.2020 09:06 15,1 C 21,7 C 15,0 C 78 % 1025,1 hPa 0,0 l/m 0,2 km/h (0 Bft) NO 45 11,3 C 15,1 C 0,0 km/h (0 Bft)
13.07.2020 09:04 15,0 C 21,3 C 14,9 C 79 % 1025,1 hPa 0,0 l/m 0,2 km/h (0 Bft) O-NO 67 11,4 C 15,0 C 0,0 km/h (0 Bft)
13.07.2020 09:02 14,9 C 21,2 C 14,9 C 80 % 1025,1 hPa 0,0 l/m 0,3 km/h (0 Bft) O-NO 67 11,5 C 14,9 C 0,0 km/h (0 Bft)
13.07.2020 09:00 14,9 C 21,0 C 14,9 C 80 % 1025,1 hPa 0,0 l/m 0,3 km/h (0 Bft) O 90 11,5 C 14,9 C 0,0 km/h (0 Bft)
13.07.2020 08:58 14,6 C 21,0 C 15,0 C 81 % 1024,9 hPa 0,0 l/m 0,8 km/h (0 Bft) SO 135 11,4 C 14,6 C 0,0 km/h (0 Bft)
13.07.2020 08:56 14,6 C 21,0 C 15,0 C 81 % 1024,9 hPa 0,0 l/m 0,8 km/h (0 Bft) O-NO 67 11,4 C 14,6 C 0,0 km/h (0 Bft)
13.07.2020 08:54 14,3 C 20,7 C 15,0 C 82 % 1024,9 hPa 0,0 l/m 1,0 km/h (0 Bft) N-NO 22 11,3 C 14,3 C 0,0 km/h (0 Bft)
13.07.2020 08:52 14,2 C 20,8 C 15,0 C 82 % 1024,9 hPa 0,0 l/m 1,0 km/h (0 Bft) O-NO 67 11,2 C 14,2 C 2,3 km/h (1 Bft)
13.07.2020 08:50 14,1 C 20,7 C 15,0 C 82 % 1024,9 hPa 0,0 l/m 0,8 km/h (0 Bft) O-NO 67 11,1 C 14,1 C 1,9 km/h (1 Bft)
13.07.2020 08:48 13,9 C 20,4 C 15,0 C 83 % 1024,9 hPa 0,0 l/m 0,8 km/h (0 Bft) O-NO 67 11,1 C 13,9 C 2,9 km/h (1 Bft)
13.07.2020 08:46 13,8 C 20,2 C 15,0 C 83 % 1024,9 hPa 0,0 l/m 0,6 km/h (0 Bft) O-NO 67 11,0 C 13,8 C 2,3 km/h (1 Bft)
13.07.2020 08:44 13,7 C 19,9 C 14,9 C 84 % 1024,9 hPa 0,0 l/m 0,5 km/h (0 Bft) O 90 11,0 C 13,7 C 2,9 km/h (1 Bft)
13.07.2020 08:42 13,6 C 19,9 C 14,9 C 84 % 1024,9 hPa 0,0 l/m 0,3 km/h (0 Bft) O-SO 112 10,9 C 13,6 C 0,0 km/h (0 Bft)
13.07.2020 08:40 13,4 C 19,8 C 14,9 C 84 % 1024,9 hPa 0,0 l/m 0,3 km/h (0 Bft) O-NO 67 10,8 C 13,4 C 1,9 km/h (1 Bft)
13.07.2020 08:38 13,3 C 19,8 C 14,9 C 85 % 1025,1 hPa 0,0 l/m 0,2 km/h (0 Bft) N-NO 22 10,8 C 13,3 C 2,3 km/h (1 Bft)
13.07.2020 08:36 13,2 C 19,5 C 14,9 C 86 % 1025,1 hPa 0,0 l/m 0,0 km/h (0 Bft) O-NO 67 10,9 C 13,2 C 2,5 km/h (1 Bft)
13.07.2020 08:34 13,2 C 19,4 C 14,9 C 86 % 1025,1 hPa 0,0 l/m 0,3 km/h (0 Bft) O-SO 112 10,9 C 13,2 C 0,0 km/h (0 Bft)
13.07.2020 08:32 13,0 C 19,0 C 15,0 C 86 % 1025,1 hPa 0,0 l/m 0,6 km/h (0 Bft) N-NW 337 10,7 C 13,0 C 0,0 km/h (0 Bft)
13.07.2020 08:30 12,8 C 18,4 C 15,0 C 87 % 1025,1 hPa 0,0 l/m 0,8 km/h (0 Bft) SO 135 10,7 C 12,8 C 0,0 km/h (0 Bft)
13.07.2020 08:28 12,6 C 18,1 C 15,0 C 87 % 1025,1 hPa 0,0 l/m 0,8 km/h (0 Bft) O-NO 67 10,5 C 12,6 C 0,0 km/h (0 Bft)
13.07.2020 08:26 12,4 C 18,1 C 15,0 C 88 % 1025,1 hPa 0,0 l/m 0,8 km/h (0 Bft) O-NO 67 10,5 C 12,4 C 0,0 km/h (0 Bft)
13.07.2020 08:24 12,3 C 17,7 C 15,0 C 88 % 1025,1 hPa 0,0 l/m 0,6 km/h (0 Bft) O-NO 67 10,4 C 12,3 C 0,0 km/h (0 Bft)
13.07.2020 08:22 12,2 C 17,4 C 15,0 C 88 % 1025,1 hPa 0,0 l/m 0,5 km/h (0 Bft) O-NO 67 10,3 C 12,2 C 2,5 km/h (1 Bft)
13.07.2020 08:20 12,0 C 17,2 C 15,0 C 88 % 1025,1 hPa 0,0 l/m 0,2 km/h (0 Bft) O-NO 67 10,1 C 12,0 C 0,0 km/h (0 Bft)
13.07.2020 08:18 11,9 C 17,2 C 15,0 C 89 % 1025,1 hPa 0,0 l/m 0,0 km/h (0 Bft) O 90 10,1 C 11,9 C 0,0 km/h (0 Bft)
13.07.2020 08:16 11,7 C 17,1 C 15,0 C 89 % 1025,1 hPa 0,0 l/m 0,0 km/h (0 Bft) NO 45 9,9 C 11,7 C 0,0 km/h (0 Bft)
13.07.2020 08:14 11,6 C 16,9 C 15,0 C 89 % 1025,1 hPa 0,0 l/m 0,0 km/h (0 Bft) O-NO 67 9,8 C 11,6 C 0,0 km/h (0 Bft)
13.07.2020 08:12 11,3 C 16,8 C 15,0 C 89 % 1025,1 hPa 0,0 l/m 0,0 km/h (0 Bft) NO 45 9,6 C 11,3 C 0,0 km/h (0 Bft)
13.07.2020 08:10 11,1 C 16,8 C 15,0 C 89 % 1025,1 hPa 0,0 l/m 0,0 km/h (0 Bft) O-NO 67 9,4 C 11,1 C 0,0 km/h (0 Bft)
13.07.2020 08:08 10,9 C 16,6 C 15,0 C 89 % 1025,1 hPa 0,0 l/m 0,0 km/h (0 Bft) NO 45 9,2 C 10,9 C 0,0 km/h (0 Bft)
13.07.2020 08:06 10,6 C 16,3 C 15,0 C 89 % 1025,1 hPa 0,0 l/m 0,0 km/h (0 Bft) O 90 8,9 C 10,6 C 0,0 km/h (0 Bft)
13.07.2020 08:04 10,3 C 16,2 C 15,0 C 89 % 1025,1 hPa 0,0 l/m 0,0 km/h (0 Bft) O-NO 67 8,6 C 10,3 C 0,0 km/h (0 Bft)
13.07.2020 08:02 9,9 C 15,9 C 15,0 C 90 % 1025,1 hPa 0,0 l/m 0,0 km/h (0 Bft) NO 45 8,3 C 9,9 C 0,0 km/h (0 Bft)
13.07.2020 08:00 9,5 C 15,6 C 15,0 C 90 % 1025,1 hPa 0,0 l/m 0,0 km/h (0 Bft) N-NO 22 7,9 C 9,5 C 0,0 km/h (0 Bft)
13.07.2020 07:58 9,4 C 15,4 C 15,0 C 90 % 1025,1 hPa 0,0 l/m 0,0 km/h (0 Bft) O-SO 112 7,8 C 9,4 C 0,0 km/h (0 Bft)
13.07.2020 07:56 9,2 C 15,4 C 15,0 C 89 % 1025,1 hPa 0,0 l/m 0,0 km/h (0 Bft) SO 135 7,5 C 9,2 C 0,0 km/h (0 Bft)
13.07.2020 07:54 9,1 C 15,5 C 15,0 C 89 % 1025,1 hPa 0,0 l/m 0,0 km/h (0 Bft) SO 135 7,4 C 9,1 C 0,0 km/h (0 Bft)
13.07.2020 07:52 8,9 C 15,4 C 15,0 C 90 % 1025,1 hPa 0,0 l/m 0,0 km/h (0 Bft) O-SO 112 7,4 C 8,9 C 0,0 km/h (0 Bft)
13.07.2020 07:50 8,9 C 15,2 C 15,0 C 90 % 1025,1 hPa 0,0 l/m 0,0 km/h (0 Bft) O-NO 67 7,4 C 8,9 C 0,0 km/h (0 Bft)
13.07.2020 07:48 8,8 C 15,1 C 15,0 C 90 % 1025,1 hPa 0,0 l/m 0,0 km/h (0 Bft) O 90 7,3 C 8,8 C 0,0 km/h (0 Bft)
13.07.2020 07:46 8,8 C 14,9 C 15,0 C 90 % 1025,1 hPa 0,0 l/m 0,0 km/h (0 Bft) S-SO 157 7,3 C 8,8 C 0,0 km/h (0 Bft)
13.07.2020 07:44 8,8 C 14,9 C 15,0 C 90 % 1025,1 hPa 0,0 l/m 0,0 km/h (0 Bft) O-SO 112 7,3 C 8,8 C 0,0 km/h (0 Bft)
13.07.2020 07:42 8,5 C 14,4 C 15,0 C 90 % 1025,1 hPa 0,0 l/m 0,0 km/h (0 Bft) N-NW 337 7,0 C 8,5 C 0,0 km/h (0 Bft)
13.07.2020 07:40 8,4 C 14,2 C 15,0 C 90 % 1025,1 hPa 0,0 l/m 0,0 km/h (0 Bft) O-SO 112 6,9 C 8,4 C 0,0 km/h (0 Bft)
13.07.2020 07:38 8,2 C 13,8 C 15,0 C 90 % 1025,1 hPa 0,0 l/m 0,3 km/h (0 Bft) N-NO 22 6,7 C 8,2 C 0,0 km/h (0 Bft)
13.07.2020 07:36 8,1 C 13,5 C 15,0 C 90 % 1025,1 hPa 0,0 l/m 0,6 km/h (0 Bft) SO 135 6,6 C 8,1 C 0,0 km/h (0 Bft)
13.07.2020 07:34 8,0 C 13,4 C 15,0 C 90 % 1025,1 hPa 0,0 l/m 1,0 km/h (0 Bft) O-SO 112 6,5 C 8,0 C 0,0 km/h (0 Bft)
13.07.2020 07:32 7,9 C 13,2 C 15,0 C 90 % 1025,1 hPa 0,0 l/m 1,1 km/h (1 Bft) O 90 6,4 C 7,9 C 0,0 km/h (0 Bft)
13.07.2020 07:30 7,8 C 12,9 C 15,0 C 90 % 1025,1 hPa 0,0 l/m 1,1 km/h (1 Bft) O 90 6,3 C 7,8 C 0,0 km/h (0 Bft)
13.07.2020 07:28 7,7 C 12,7 C 15,0 C 89 % 1025,1 hPa 0,0 l/m 1,0 km/h (0 Bft) O-NO 67 6,0 C 7,7 C 2,5 km/h (1 Bft)
13.07.2020 07:26 7,6 C 12,4 C 15,0 C 89 % 1025,1 hPa 0,0 l/m 0,6 km/h (0 Bft) O-NO 67 5,9 C 7,6 C 2,5 km/h (1 Bft)
13.07.2020 07:24 7,5 C 12,0 C 15,0 C 89 % 1025,1 hPa 0,0 l/m 0,2 km/h (0 Bft) O-NO 67 5,8 C 7,5 C 2,1 km/h (1 Bft)
13.07.2020 07:22 7,5 C 11,8 C 15,0 C 89 % 1025,1 hPa 0,0 l/m 0,0 km/h (0 Bft) O-NO 67 5,8 C 7,5 C 0,0 km/h (0 Bft)
13.07.2020 07:20 7,5 C 11,3 C 15,0 C 89 % 1025,1 hPa 0,0 l/m 0,0 km/h (0 Bft) NW 315 5,8 C 7,5 C 0,0 km/h (0 Bft)
13.07.2020 07:18 7,3 C 10,7 C 15,0 C 89 % 1025,1 hPa 0,0 l/m 0,0 km/h (0 Bft) N 360 5,6 C 7,3 C 0,0 km/h (0 Bft)
13.07.2020 07:16 7,2 C 10,1 C 15,0 C 89 % 1025,1 hPa 0,0 l/m 0,0 km/h (0 Bft) W-NW 292 5,5 C 7,2 C 0,0 km/h (0 Bft)
13.07.2020 07:14 7,1 C 8,7 C 15,0 C 89 % 1025,1 hPa 0,0 l/m 0,0 km/h (0 Bft) O-NO 67 5,4 C 7,1 C 0,0 km/h (0 Bft)
13.07.2020 07:12 7,0 C 8,0 C 15,0 C 89 % 1025,1 hPa 0,0 l/m 0,0 km/h (0 Bft) N 360 5,3 C 7,0 C 0,0 km/h (0 Bft)
13.07.2020 07:10 6,9 C 7,7 C 15,0 C 90 % 1025,1 hPa 0,0 l/m 0,0 km/h (0 Bft) N 360 5,4 C 6,9 C 0,0 km/h (0 Bft)
13.07.2020 07:08 6,8 C 7,5 C 15,0 C 90 % 1025,1 hPa 0,0 l/m 0,0 km/h (0 Bft) O-NO 67 5,3 C 6,8 C 0,0 km/h (0 Bft)
13.07.2020 07:06 6,7 C 7,5 C 15,0 C 90 % 1025,1 hPa 0,0 l/m 0,0 km/h (0 Bft) O-NO 67 5,2 C 6,7 C 0,0 km/h (0 Bft)
13.07.2020 07:04 6,5 C 7,5 C 15,0 C 90 % 1025,1 hPa 0,0 l/m 0,0 km/h (0 Bft) NO 45 5,0 C 6,5 C 0,0 km/h (0 Bft)
13.07.2020 07:02 6,3 C 7,4 C 15,0 C 89 % 1025,1 hPa 0,0 l/m 0,0 km/h (0 Bft) N-NO 22 4,6 C 6,3 C 0,0 km/h (0 Bft)
13.07.2020 07:00 6,2 C 7,3 C 15,0 C 89 % 1025,1 hPa 0,0 l/m 0,0 km/h (0 Bft) N-NO 22 4,5 C 6,2 C 0,0 km/h (0 Bft)
13.07.2020 06:58 6,2 C 7,3 C 15,0 C 89 % 1024,9 hPa 0,0 l/m 0,0 km/h (0 Bft) SO 135 4,5 C 6,2 C 0,0 km/h (0 Bft)
13.07.2020 06:56 6,2 C 7,3 C 15,0 C 89 % 1024,9 hPa 0,0 l/m 0,0 km/h (0 Bft) N-NW 337 4,5 C 6,2 C 0,0 km/h (0 Bft)
13.07.2020 06:54 6,1 C 7,3 C 15,0 C 89 % 1024,9 hPa 0,0 l/m 0,0 km/h (0 Bft) NO 45 4,4 C 6,1 C 0,0 km/h (0 Bft)
13.07.2020 06:52 6,1 C 7,2 C 15,0 C 89 % 1024,9 hPa 0,0 l/m 0,0 km/h (0 Bft) O-NO 67 4,4 C 6,1 C 0,0 km/h (0 Bft)
13.07.2020 06:50 6,1 C 7,1 C 15,1 C 89 % 1024,9 hPa 0,0 l/m 0,0 km/h (0 Bft) NO 45 4,4 C 6,1 C 0,0 km/h (0 Bft)
13.07.2020 06:48 6,2 C 7,1 C 15,1 C 89 % 1024,9 hPa 0,0 l/m 0,3 km/h (0 Bft) O 90 4,5 C 6,2 C 0,0 km/h (0 Bft)
13.07.2020 06:46 5,9 C 7,1 C 15,1 C 90 % 1024,9 hPa 0,0 l/m 0,5 km/h (0 Bft) NO 45 4,4 C 5,9 C 0,0 km/h (0 Bft)
13.07.2020 06:44 5,7 C 6,9 C 15,1 C 90 % 1024,9 hPa 0,0 l/m 0,8 km/h (0 Bft) S-SW 202 4,2 C 5,7 C 0,0 km/h (0 Bft)
13.07.2020 06:42 5,6 C 6,9 C 15,1 C 90 % 1024,9 hPa 0,0 l/m 1,1 km/h (1 Bft) O-SO 112 4,1 C 5,6 C 0,0 km/h (0 Bft)
13.07.2020 06:40 5,6 C 6,9 C 15,1 C 90 % 1024,9 hPa 0,0 l/m 1,4 km/h (1 Bft) S-SO 157 4,1 C 5,6 C 2,1 km/h (1 Bft)
13.07.2020 06:38 5,6 C 6,9 C 15,1 C 90 % 1025,0 hPa 0,0 l/m 1,6 km/h (1 Bft) W 270 4,1 C 5,6 C 2,7 km/h (1 Bft)
13.07.2020 06:36 5,9 C 6,9 C 15,1 C 90 % 1025,0 hPa 0,0 l/m 1,3 km/h (1 Bft) O 90 4,4 C 5,9 C 2,5 km/h (1 Bft)
13.07.2020 06:34 6,1 C 6,8 C 15,1 C 89 % 1025,0 hPa 0,0 l/m 0,8 km/h (0 Bft) O-NO 67 4,4 C 6,1 C 2,9 km/h (1 Bft)
13.07.2020 06:32 5,7 C 6,7 C 15,1 C 90 % 1025,0 hPa 0,0 l/m 0,5 km/h (0 Bft) O-NO 67 4,2 C 5,7 C 0,0 km/h (0 Bft)
13.07.2020 06:30 5,7 C 6,6 C 15,1 C 90 % 1025,0 hPa 0,0 l/m 0,5 km/h (0 Bft) O-NO 67 4,2 C 5,7 C 2,9 km/h (1 Bft)
13.07.2020 06:28 5,7 C 6,5 C 15,1 C 90 % 1025,0 hPa 0,0 l/m 0,0 km/h (0 Bft) O-NO 67 4,2 C 5,7 C 0,0 km/h (0 Bft)
13.07.2020 06:26 5,5 C 6,5 C 15,1 C 90 % 1025,0 hPa 0,0 l/m 0,0 km/h (0 Bft) NO 45 4,0 C 5,5 C 0,0 km/h (0 Bft)
13.07.2020 06:24 5,7 C 6,5 C 15,1 C 90 % 1025,0 hPa 0,0 l/m 0,0 km/h (0 Bft) O-NO 67 4,2 C 5,7 C 0,0 km/h (0 Bft)
13.07.2020 06:22 5,6 C 6,3 C 15,1 C 90 % 1025,0 hPa 0,0 l/m 0,0 km/h (0 Bft) NO 45 4,1 C 5,6 C 0,0 km/h (0 Bft)
13.07.2020 06:20 5,5 C 6,2 C 15,2 C 90 % 1025,0 hPa 0,0 l/m 0,0 km/h (0 Bft) O-SO 112 4,0 C 5,5 C 0,0 km/h (0 Bft)
13.07.2020 06:18 5,4 C 6,2 C 15,2 C 90 % 1025,2 hPa 0,0 l/m 0,0 km/h (0 Bft) O-NO 67 3,9 C 5,4 C 0,0 km/h (0 Bft)
13.07.2020 06:16 5,3 C 6,3 C 15,2 C 90 % 1025,2 hPa 0,0 l/m 0,0 km/h (0 Bft) N 360 3,8 C 5,3 C 0,0 km/h (0 Bft)
13.07.2020 06:14 5,2 C 6,2 C 15,2 C 90 % 1025,2 hPa 0,0 l/m 0,0 km/h (0 Bft) N-NO 22 3,7 C 5,2 C 0,0 km/h (0 Bft)
13.07.2020 06:12 5,1 C 6,0 C 15,2 C 90 % 1025,2 hPa 0,0 l/m 0,0 km/h (0 Bft) S-SW 202 3,6 C 5,1 C 0,0 km/h (0 Bft)
13.07.2020 06:10 5,2 C 5,8 C 15,2 C 89 % 1025,2 hPa 0,0 l/m 0,0 km/h (0 Bft) W-SW 247 3,5 C 5,2 C 0,0 km/h (0 Bft)
13.07.2020 06:08 5,2 C 5,8 C 15,2 C 89 % 1025,2 hPa 0,0 l/m 0,0 km/h (0 Bft) W-SW 247 3,5 C 5,2 C 0,0 km/h (0 Bft)
13.07.2020 06:06 5,2 C 5,8 C 15,2 C 89 % 1025,2 hPa 0,0 l/m 0,0 km/h (0 Bft) W-SW 247 3,5 C 5,2 C 0,0 km/h (0 Bft)
13.07.2020 06:04 5,2 C 5,8 C 15,2 C 89 % 1025,2 hPa 0,0 l/m 0,0 km/h (0 Bft) W-SW 247 3,5 C 5,2 C 0,0 km/h (0 Bft)
13.07.2020 06:02 5,2 C 5,8 C 15,2 C 89 % 1025,2 hPa 0,0 l/m 0,0 km/h (0 Bft) W-SW 247 3,5 C 5,2 C 0,0 km/h (0 Bft)
13.07.2020 06:00 5,2 C 5,8 C 15,2 C 89 % 1025,2 hPa 0,0 l/m 0,0 km/h (0 Bft) S-SW 202 3,5 C 5,2 C 0,0 km/h (0 Bft)
13.07.2020 05:58 5,3 C 5,7 C 15,2 C 89 % 1025,1 hPa 0,0 l/m 0,0 km/h (0 Bft) O-NO 67 3,6 C 5,3 C 0,0 km/h (0 Bft)
13.07.2020 05:56 5,2 C 5,7 C 15,2 C 89 % 1025,1 hPa 0,0 l/m 0,0 km/h (0 Bft) SO 135 3,5 C 5,2 C 0,0 km/h (0 Bft)
13.07.2020 05:54 5,2 C 5,7 C 15,3 C 89 % 1025,1 hPa 0,0 l/m 0,0 km/h (0 Bft) NO 45 3,5 C 5,2 C 0,0 km/h (0 Bft)
13.07.2020 05:52 5,2 C 5,6 C 15,3 C 89 % 1025,1 hPa 0,0 l/m 0,0 km/h (0 Bft) O 90 3,5 C 5,2 C 0,0 km/h (0 Bft)
13.07.2020 05:50 5,2 C 5,6 C 15,4 C 89 % 1025,1 hPa 0,0 l/m 0,0 km/h (0 Bft) O-NO 67 3,5 C 5,2 C 0,0 km/h (0 Bft)
13.07.2020 05:48 5,2 C 5,5 C 15,4 C 89 % 1025,1 hPa 0,0 l/m 0,0 km/h (0 Bft) W-NW 292 3,5 C 5,2 C 0,0 km/h (0 Bft)
13.07.2020 05:46 5,1 C 5,6 C 15,4 C 89 % 1025,1 hPa 0,0 l/m 0,0 km/h (0 Bft) NW 315 3,4 C 5,1 C 0,0 km/h (0 Bft)
13.07.2020 05:44 5,0 C 5,6 C 15,3 C 89 % 1025,1 hPa 0,0 l/m 0,0 km/h (0 Bft) N-NO 22 3,3 C 5,0 C 0,0 km/h (0 Bft)
13.07.2020 05:42 5,1 C 5,6 C 15,3 C 89 % 1025,1 hPa 0,0 l/m 0,0 km/h (0 Bft) W 270 3,4 C 5,1 C 0,0 km/h (0 Bft)
13.07.2020 05:40 5,0 C 5,6 C 15,3 C 89 % 1025,1 hPa 0,0 l/m 0,0 km/h (0 Bft) W 270 3,3 C 5,0 C 0,0 km/h (0 Bft)
13.07.2020 05:38 5,1 C 5,6 C 15,3 C 89 % 1025,3 hPa 0,0 l/m 0,0 km/h (0 Bft) W 270 3,4 C 5,1 C 0,0 km/h (0 Bft)
13.07.2020 05:36 5,1 C 5,5 C 15,3 C 89 % 1025,3 hPa 0,0 l/m 0,0 km/h (0 Bft) W 270 3,4 C 5,1 C 0,0 km/h (0 Bft)
13.07.2020 05:34 5,2 C 5,5 C 15,3 C 89 % 1025,3 hPa 0,0 l/m 0,0 km/h (0 Bft) O-NO 67 3,5 C 5,2 C 0,0 km/h (0 Bft)
13.07.2020 05:32 5,1 C 5,5 C 15,3 C 89 % 1025,3 hPa 0,0 l/m 0,0 km/h (0 Bft) S-SW 202 3,4 C 5,1 C 2,1 km/h (1 Bft)
13.07.2020 05:30 5,2 C 5,5 C 15,3 C 89 % 1025,3 hPa 0,0 l/m 0,2 km/h (0 Bft) N-NO 22 3,5 C 5,2 C 0,0 km/h (0 Bft)
13.07.2020 05:28 5,3 C 5,5 C 15,3 C 89 % 1025,3 hPa 0,0 l/m 0,2 km/h (0 Bft) S-SW 202 3,6 C 5,3 C 0,0 km/h (0 Bft)
13.07.2020 05:26 5,3 C 5,4 C 15,3 C 89 % 1025,3 hPa 0,0 l/m 0,2 km/h (0 Bft) O-NO 67 3,6 C 5,3 C 0,0 km/h (0 Bft)
13.07.2020 05:24 5,3 C 5,3 C 15,4 C 89 % 1025,3 hPa 0,0 l/m 0,2 km/h (0 Bft) O-SO 112 3,6 C 5,3 C 0,0 km/h (0 Bft)
13.07.2020 05:22 5,2 C 5,3 C 15,4 C 89 % 1025,3 hPa 0,0 l/m 0,2 km/h (0 Bft) O-NO 67 3,5 C 5,2 C 0,0 km/h (0 Bft)
13.07.2020 05:20 5,2 C 5,3 C 15,4 C 89 % 1025,3 hPa 0,0 l/m 0,0 km/h (0 Bft) O-NO 67 3,5 C 5,2 C 2,1 km/h (1 Bft)
13.07.2020 05:18 5,2 C 5,3 C 15,4 C 89 % 1025,1 hPa 0,0 l/m 0,0 km/h (0 Bft) O-NO 67 3,5 C 5,2 C 0,0 km/h (0 Bft)
13.07.2020 05:16 5,1 C 5,3 C 15,4 C 89 % 1025,1 hPa 0,0 l/m 0,0 km/h (0 Bft) O-NO 67 3,4 C 5,1 C 0,0 km/h (0 Bft)
13.07.2020 05:14 5,1 C 5,2 C 15,4 C 89 % 1025,1 hPa 0,0 l/m 0,0 km/h (0 Bft) S-SW 202 3,4 C 5,1 C 0,0 km/h (0 Bft)
13.07.2020 05:12 5,2 C 5,3 C 15,4 C 89 % 1025,1 hPa 0,0 l/m 0,2 km/h (0 Bft) N-NO 22 3,5 C 5,2 C 0,0 km/h (0 Bft)
13.07.2020 05:10 5,2 C 5,3 C 15,4 C 89 % 1025,1 hPa 0,0 l/m 0,2 km/h (0 Bft) NO 45 3,5 C 5,2 C 0,0 km/h (0 Bft)
13.07.2020 05:08 5,2 C 5,2 C 15,4 C 89 % 1025,1 hPa 0,0 l/m 0,2 km/h (0 Bft) O-NO 67 3,5 C 5,2 C 0,0 km/h (0 Bft)
13.07.2020 05:06 5,2 C 5,1 C 15,4 C 89 % 1025,1 hPa 0,0 l/m 0,2 km/h (0 Bft) O 90 3,5 C 5,2 C 0,0 km/h (0 Bft)
13.07.2020 05:04 5,1 C 5,1 C 15,4 C 89 % 1025,1 hPa 0,0 l/m 0,2 km/h (0 Bft) O-NO 67 3,4 C 5,1 C 0,0 km/h (0 Bft)
13.07.2020 05:02 5,3 C 5,1 C 15,5 C 89 % 1025,1 hPa 0,0 l/m 0,2 km/h (0 Bft) NO 45 3,6 C 5,3 C 2,1 km/h (1 Bft)
13.07.2020 05:00 5,1 C 5,2 C 15,5 C 89 % 1025,1 hPa 0,0 l/m 0,0 km/h (0 Bft) N-NO 22 3,4 C 5,1 C 0,0 km/h (0 Bft)
13.07.2020 04:58 5,1 C 5,2 C 15,5 C 89 % 1025,4 hPa 0,0 l/m 0,0 km/h (0 Bft) N-NO 22 3,4 C 5,1 C 0,0 km/h (0 Bft)
13.07.2020 04:56 5,1 C 5,3 C 15,5 C 89 % 1025,4 hPa 0,0 l/m 0,0 km/h (0 Bft) S-SW 202 3,4 C 5,1 C 0,0 km/h (0 Bft)
13.07.2020 04:54 5,2 C 5,3 C 15,5 C 89 % 1025,4 hPa 0,0 l/m 0,0 km/h (0 Bft) N-NO 22 3,5 C 5,2 C 0,0 km/h (0 Bft)
13.07.2020 04:52 5,1 C 5,3 C 15,5 C 89 % 1025,4 hPa 0,0 l/m 0,0 km/h (0 Bft) S 180 3,4 C 5,1 C 0,0 km/h (0 Bft)
13.07.2020 04:50 5,2 C 5,3 C 15,5 C 89 % 1025,4 hPa 0,0 l/m 0,0 km/h (0 Bft) O-NO 67 3,5 C 5,2 C 0,0 km/h (0 Bft)
13.07.2020 04:48 5,2 C 5,3 C 15,5 C 89 % 1025,4 hPa 0,0 l/m 0,0 km/h (0 Bft) O-NO 67 3,5 C 5,2 C 0,0 km/h (0 Bft)
13.07.2020 04:46 5,3 C 5,3 C 15,5 C 89 % 1025,4 hPa 0,0 l/m 0,0 km/h (0 Bft) N 360 3,6 C 5,3 C 0,0 km/h (0 Bft)
13.07.2020 04:44 5,3 C 5,3 C 15,5 C 89 % 1025,4 hPa 0,0 l/m 0,0 km/h (0 Bft) N-NO 22 3,6 C 5,3 C 0,0 km/h (0 Bft)
13.07.2020 04:42 5,3 C 5,3 C 15,5 C 89 % 1025,4 hPa 0,0 l/m 0,0 km/h (0 Bft) N-NO 22 3,6 C 5,3 C 0,0 km/h (0 Bft)
13.07.2020 04:40 5,2 C 5,1 C 15,5 C 89 % 1025,4 hPa 0,0 l/m 0,0 km/h (0 Bft) NW 315 3,5 C 5,2 C 0,0 km/h (0 Bft)
13.07.2020 04:38 5,1 C 5,1 C 15,5 C 89 % 1025,4 hPa 0,0 l/m 0,0 km/h (0 Bft) S-SW 202 3,4 C 5,1 C 0,0 km/h (0 Bft)
13.07.2020 04:36 5,1 C 5,3 C 15,6 C 89 % 1025,4 hPa 0,0 l/m 0,0 km/h (0 Bft) S-SW 202 3,4 C 5,1 C 0,0 km/h (0 Bft)
13.07.2020 04:34 5,3 C 5,3 C 15,6 C 89 % 1025,4 hPa 0,0 l/m 0,0 km/h (0 Bft) S 180 3,6 C 5,3 C 0,0 km/h (0 Bft)
13.07.2020 04:32 5,5 C 5,3 C 15,6 C 89 % 1025,4 hPa 0,0 l/m 0,0 km/h (0 Bft) N-NO 22 3,8 C 5,5 C 0,0 km/h (0 Bft)
13.07.2020 04:30 5,5 C 5,4 C 15,6 C 89 % 1025,4 hPa 0,0 l/m 0,0 km/h (0 Bft) NO 45 3,8 C 5,5 C 0,0 km/h (0 Bft)
13.07.2020 04:28 5,5 C 5,4 C 15,6 C 89 % 1025,4 hPa 0,0 l/m 0,0 km/h (0 Bft) N-NO 22 3,8 C 5,5 C 0,0 km/h (0 Bft)
13.07.2020 04:26 5,4 C 5,4 C 15,6 C 89 % 1025,4 hPa 0,0 l/m 0,0 km/h (0 Bft) O-NO 67 3,7 C 5,4 C 0,0 km/h (0 Bft)
13.07.2020 04:24 5,4 C 5,5 C 15,6 C 89 % 1025,4 hPa 0,0 l/m 0,0 km/h (0 Bft) N-NO 22 3,7 C 5,4 C 0,0 km/h (0 Bft)
13.07.2020 04:22 5,4 C 5,5 C 15,6 C 89 % 1025,4 hPa 0,0 l/m 0,0 km/h (0 Bft) S-SO 157 3,7 C 5,4 C 0,0 km/h (0 Bft)
13.07.2020 04:20 5,4 C 5,5 C 15,6 C 89 % 1025,4 hPa 0,0 l/m 0,0 km/h (0 Bft) S-SO 157 3,7 C 5,4 C 0,0 km/h (0 Bft)
13.07.2020 04:18 5,6 C 5,3 C 15,6 C 89 % 1025,4 hPa 0,0 l/m 0,0 km/h (0 Bft) S-SW 202 3,9 C 5,6 C 0,0 km/h (0 Bft)
13.07.2020 04:16 5,7 C 5,3 C 15,6 C 89 % 1025,4 hPa 0,0 l/m 0,0 km/h (0 Bft) SO 135 4,0 C 5,7 C 0,0 km/h (0 Bft)
13.07.2020 04:14 5,6 C 5,4 C 15,6 C 89 % 1025,4 hPa 0,0 l/m 0,0 km/h (0 Bft) NO 45 3,9 C 5,6 C 0,0 km/h (0 Bft)
13.07.2020 04:12 5,6 C 5,4 C 15,8 C 89 % 1025,4 hPa 0,0 l/m 0,0 km/h (0 Bft) W-NW 292 3,9 C 5,6 C 0,0 km/h (0 Bft)
13.07.2020 04:10 5,6 C 5,5 C 15,8 C 89 % 1025,4 hPa 0,0 l/m 0,0 km/h (0 Bft) O-NO 67 3,9 C 5,6 C 0,0 km/h (0 Bft)
13.07.2020 04:08 5,5 C 5,6 C 15,8 C 89 % 1025,4 hPa 0,0 l/m 0,0 km/h (0 Bft) N-NO 22 3,8 C 5,5 C 0,0 km/h (0 Bft)
13.07.2020 04:06 5,5 C 5,5 C 15,8 C 89 % 1025,4 hPa 0,0 l/m 0,0 km/h (0 Bft) N-NO 22 3,8 C 5,5 C 0,0 km/h (0 Bft)
13.07.2020 04:04 5,5 C 5,5 C 15,8 C 89 % 1025,4 hPa 0,0 l/m 0,0 km/h (0 Bft) SO 135 3,8 C 5,5 C 0,0 km/h (0 Bft)
13.07.2020 04:02 5,5 C 5,4 C 15,8 C 89 % 1025,4 hPa 0,0 l/m 0,0 km/h (0 Bft) O-NO 67 3,8 C 5,5 C 0,0 km/h (0 Bft)
13.07.2020 04:00 5,6 C 5,5 C 15,8 C 89 % 1025,4 hPa 0,0 l/m 0,0 km/h (0 Bft) SO 135 3,9 C 5,6 C 0,0 km/h (0 Bft)
13.07.2020 03:58 5,6 C 5,6 C 15,8 C 89 % 1025,4 hPa 0,0 l/m 0,0 km/h (0 Bft) N-NO 22 3,9 C 5,6 C 0,0 km/h (0 Bft)
13.07.2020 03:56 5,6 C 5,6 C 15,8 C 89 % 1025,4 hPa 0,0 l/m 0,0 km/h (0 Bft) N-NO 22 3,9 C 5,6 C 0,0 km/h (0 Bft)
13.07.2020 03:54 5,5 C 5,6 C 15,8 C 89 % 1025,4 hPa 0,0 l/m 0,0 km/h (0 Bft) S-SO 157 3,8 C 5,5 C 0,0 km/h (0 Bft)
13.07.2020 03:52 5,6 C 5,6 C 15,8 C 89 % 1025,4 hPa 0,0 l/m 0,0 km/h (0 Bft) N-NO 22 3,9 C 5,6 C 0,0 km/h (0 Bft)
13.07.2020 03:50 5,6 C 5,6 C 15,9 C 89 % 1025,4 hPa 0,0 l/m 0,0 km/h (0 Bft) O-NO 67 3,9 C 5,6 C 0,0 km/h (0 Bft)
13.07.2020 03:48 5,6 C 5,6 C 15,9 C 89 % 1025,4 hPa 0,0 l/m 0,0 km/h (0 Bft) NO 45 3,9 C 5,6 C 0,0 km/h (0 Bft)
13.07.2020 03:46 5,5 C 5,6 C 15,9 C 89 % 1025,4 hPa 0,0 l/m 0,0 km/h (0 Bft) N-NO 22 3,8 C 5,5 C 0,0 km/h (0 Bft)
13.07.2020 03:44 5,6 C 5,8 C 15,9 C 89 % 1025,4 hPa 0,0 l/m 0,0 km/h (0 Bft) N-NO 22 3,9 C 5,6 C 0,0 km/h (0 Bft)
13.07.2020 03:42 5,5 C 5,8 C 15,9 C 89 % 1025,4 hPa 0,0 l/m 0,0 km/h (0 Bft) N-NO 22 3,8 C 5,5 C 0,0 km/h (0 Bft)
13.07.2020 03:40 5,4 C 5,8 C 15,9 C 89 % 1025,4 hPa 0,0 l/m 0,0 km/h (0 Bft) S-SW 202 3,7 C 5,4 C 0,0 km/h (0 Bft)
13.07.2020 03:38 5,5 C 5,9 C 15,9 C 89 % 1025,5 hPa 0,0 l/m 0,0 km/h (0 Bft) W 270 3,8 C 5,5 C 0,0 km/h (0 Bft)
13.07.2020 03:36 5,6 C 5,9 C 15,9 C 89 % 1025,5 hPa 0,0 l/m 0,0 km/h (0 Bft) SW 225 3,9 C 5,6 C 0,0 km/h (0 Bft)
13.07.2020 03:34 5,7 C 6,0 C 15,9 C 89 % 1025,5 hPa 0,0 l/m 0,0 km/h (0 Bft) S-SW 202 4,0 C 5,7 C 0,0 km/h (0 Bft)
13.07.2020 03:32 5,7 C 6,0 C 15,9 C 89 % 1025,5 hPa 0,0 l/m 0,0 km/h (0 Bft) W 270 4,0 C 5,7 C 0,0 km/h (0 Bft)
13.07.2020 03:30 5,7 C 6,2 C 15,9 C 89 % 1025,5 hPa 0,0 l/m 0,2 km/h (0 Bft) S-SW 202 4,0 C 5,7 C 0,0 km/h (0 Bft)
13.07.2020 03:28 5,7 C 6,2 C 15,9 C 89 % 1025,5 hPa 0,0 l/m 0,3 km/h (0 Bft) S 180 4,0 C 5,7 C 0,0 km/h (0 Bft)
13.07.2020 03:26 5,9 C 6,2 C 15,9 C 89 % 1025,5 hPa 0,0 l/m 1,0 km/h (0 Bft) S-SO 157 4,2 C 5,9 C 0,0 km/h (0 Bft)
13.07.2020 03:24 5,9 C 6,3 C 15,9 C 89 % 1025,5 hPa 0,0 l/m 1,9 km/h (1 Bft) NO 45 4,2 C 5,9 C 0,0 km/h (0 Bft)
13.07.2020 03:22 6,0 C 6,3 C 15,9 C 87 % 1025,5 hPa 0,0 l/m 2,7 km/h (1 Bft) O 90 4,0 C 6,0 C 0,0 km/h (0 Bft)
13.07.2020 03:20 6,0 C 6,3 C 15,9 C 87 % 1025,5 hPa 0,0 l/m 3,5 km/h (1 Bft) O-SO 112 4,0 C 6,0 C 1,9 km/h (1 Bft)
13.07.2020 03:18 6,2 C 6,3 C 15,9 C 87 % 1026,0 hPa 0,0 l/m 3,7 km/h (1 Bft) S-SW 202 4,2 C 6,2 C 3,1 km/h (1 Bft)
13.07.2020 03:16 6,3 C 6,2 C 15,9 C 87 % 1026,0 hPa 0,0 l/m 3,1 km/h (1 Bft) O-NO 67 4,3 C 6,3 C 7,5 km/h (2 Bft)
13.07.2020 03:14 6,1 C 6,2 C 15,9 C 87 % 1026,0 hPa 0,0 l/m 2,3 km/h (1 Bft) NO 45 4,1 C 6,1 C 5,0 km/h (1 Bft)
13.07.2020 03:12 5,9 C 6,2 C 15,9 C 88 % 1026,0 hPa 0,0 l/m 1,4 km/h (1 Bft) O-NO 67 4,1 C 5,9 C 5,2 km/h (1 Bft)
13.07.2020 03:10 5,9 C 6,0 C 16,1 C 88 % 1026,0 hPa 0,0 l/m 0,0 km/h (0 Bft) SW 225 4,1 C 5,9 C 0,0 km/h (0 Bft)
13.07.2020 03:08 5,9 C 6,0 C 16,1 C 88 % 1026,0 hPa 0,0 l/m 0,0 km/h (0 Bft) SW 225 4,1 C 5,9 C 0,0 km/h (0 Bft)
13.07.2020 03:06 5,9 C 6,0 C 16,1 C 88 % 1026,0 hPa 0,0 l/m 0,0 km/h (0 Bft) SW 225 4,1 C 5,9 C 0,0 km/h (0 Bft)
13.07.2020 03:04 5,9 C 6,0 C 16,1 C 88 % 1026,0 hPa 0,0 l/m 0,0 km/h (0 Bft) SW 225 4,1 C 5,9 C 0,0 km/h (0 Bft)
13.07.2020 03:02 5,9 C 6,0 C 16,1 C 88 % 1026,0 hPa 0,0 l/m 0,0 km/h (0 Bft) SW 225 4,1 C 5,9 C 0,0 km/h (0 Bft)
13.07.2020 03:00 5,9 C 6,0 C 16,1 C 88 % 1026,0 hPa 0,0 l/m 0,0 km/h (0 Bft) S-SW 202 4,1 C 5,9 C 0,0 km/h (0 Bft)
13.07.2020 02:58 6,0 C 6,0 C 16,1 C 87 % 1025,9 hPa 0,0 l/m 0,0 km/h (0 Bft) S 180 4,0 C 6,0 C 0,0 km/h (0 Bft)
13.07.2020 02:56 6,0 C 6,0 C 16,1 C 87 % 1025,9 hPa 0,0 l/m 0,0 km/h (0 Bft) S-SO 157 4,0 C 6,0 C 0,0 km/h (0 Bft)
13.07.2020 02:54 6,1 C 6,0 C 16,1 C 87 % 1025,9 hPa 0,0 l/m 0,0 km/h (0 Bft) S 180 4,1 C 6,1 C 0,0 km/h (0 Bft)
13.07.2020 02:52 6,1 C 6,0 C 16,1 C 87 % 1025,9 hPa 0,0 l/m 0,0 km/h (0 Bft) O-NO 67 4,1 C 6,1 C 0,0 km/h (0 Bft)
13.07.2020 02:50 6,1 C 6,0 C 16,1 C 87 % 1025,9 hPa 0,0 l/m 0,0 km/h (0 Bft) O-NO 67 4,1 C 6,1 C 0,0 km/h (0 Bft)
13.07.2020 02:48 6,2 C 6,2 C 16,1 C 87 % 1025,9 hPa 0,0 l/m 0,0 km/h (0 Bft) O-NO 67 4,2 C 6,2 C 0,0 km/h (0 Bft)
13.07.2020 02:46 6,1 C 6,0 C 16,1 C 87 % 1025,9 hPa 0,0 l/m 0,0 km/h (0 Bft) N-NO 22 4,1 C 6,1 C 0,0 km/h (0 Bft)
13.07.2020 02:44 6,1 C 6,2 C 16,1 C 87 % 1025,9 hPa 0,0 l/m 0,0 km/h (0 Bft) NO 45 4,1 C 6,1 C 0,0 km/h (0 Bft)
13.07.2020 02:42 6,0 C 6,0 C 16,1 C 87 % 1025,9 hPa 0,0 l/m 0,0 km/h (0 Bft) N-NO 22 4,0 C 6,0 C 0,0 km/h (0 Bft)
13.07.2020 02:40 6,0 C 6,0 C 16,2 C 87 % 1025,9 hPa 0,0 l/m 0,0 km/h (0 Bft) N-NO 22 4,0 C 6,0 C 0,0 km/h (0 Bft)
13.07.2020 02:38 6,0 C 6,2 C 16,2 C 87 % 1025,9 hPa 0,0 l/m 0,0 km/h (0 Bft) O-NO 67 4,0 C 6,0 C 0,0 km/h (0 Bft)
13.07.2020 02:36 6,1 C 6,2 C 16,2 C 87 % 1025,9 hPa 0,0 l/m 0,0 km/h (0 Bft) N 360 4,1 C 6,1 C 0,0 km/h (0 Bft)
13.07.2020 02:34 6,0 C 6,2 C 16,2 C 87 % 1025,9 hPa 0,0 l/m 0,0 km/h (0 Bft) NO 45 4,0 C 6,0 C 0,0 km/h (0 Bft)
13.07.2020 02:32 6,0 C 6,0 C 16,2 C 87 % 1025,9 hPa 0,0 l/m 0,0 km/h (0 Bft) SO 135 4,0 C 6,0 C 0,0 km/h (0 Bft)
13.07.2020 02:30 6,0 C 6,2 C 16,2 C 87 % 1025,9 hPa 0,0 l/m 0,0 km/h (0 Bft) W-SW 247 4,0 C 6,0 C 0,0 km/h (0 Bft)
13.07.2020 02:28 6,0 C 6,2 C 16,2 C 87 % 1025,9 hPa 0,0 l/m 0,0 km/h (0 Bft) W 270 4,0 C 6,0 C 0,0 km/h (0 Bft)
13.07.2020 02:26 6,1 C 6,3 C 16,2 C 87 % 1025,9 hPa 0,0 l/m 0,0 km/h (0 Bft) N 360 4,1 C 6,1 C 0,0 km/h (0 Bft)
13.07.2020 02:24 6,1 C 6,3 C 16,2 C 87 % 1025,9 hPa 0,0 l/m 0,0 km/h (0 Bft) NO 45 4,1 C 6,1 C 0,0 km/h (0 Bft)
13.07.2020 02:22 6,3 C 6,4 C 16,2 C 87 % 1025,9 hPa 0,0 l/m 0,0 km/h (0 Bft) S-SW 202 4,3 C 6,3 C 0,0 km/h (0 Bft)
13.07.2020 02:20 6,3 C 6,4 C 16,2 C 87 % 1025,9 hPa 0,0 l/m 0,0 km/h (0 Bft) S 180 4,3 C 6,3 C 0,0 km/h (0 Bft)
13.07.2020 02:18 6,3 C 6,4 C 16,3 C 87 % 1026,0 hPa 0,0 l/m 0,0 km/h (0 Bft) S 180 4,3 C 6,3 C 0,0 km/h (0 Bft)
13.07.2020 02:16 6,2 C 6,4 C 16,3 C 87 % 1026,0 hPa 0,0 l/m 0,0 km/h (0 Bft) NO 45 4,2 C 6,2 C 0,0 km/h (0 Bft)
13.07.2020 02:14 6,1 C 6,5 C 16,3 C 87 % 1026,0 hPa 0,0 l/m 0,0 km/h (0 Bft) O-SO 112 4,1 C 6,1 C 0,0 km/h (0 Bft)
13.07.2020 02:12 6,3 C 6,5 C 16,3 C 86 % 1026,0 hPa 0,0 l/m 0,2 km/h (0 Bft) S-SO 157 4,1 C 6,3 C 0,0 km/h (0 Bft)
13.07.2020 02:10 6,3 C 6,5 C 16,3 C 86 % 1026,0 hPa 0,0 l/m 0,2 km/h (0 Bft) S 180 4,1 C 6,3 C 0,0 km/h (0 Bft)
13.07.2020 02:08 6,4 C 6,5 C 16,3 C 86 % 1026,0 hPa 0,0 l/m 0,2 km/h (0 Bft) N-NO 22 4,2 C 6,4 C 0,0 km/h (0 Bft)
13.07.2020 02:06 6,2 C 6,6 C 16,3 C 86 % 1026,0 hPa 0,0 l/m 0,2 km/h (0 Bft) O 90 4,0 C 6,2 C 0,0 km/h (0 Bft)
13.07.2020 02:04 6,1 C 6,6 C 16,3 C 86 % 1026,0 hPa 0,0 l/m 0,2 km/h (0 Bft) SO 135 3,9 C 6,1 C 0,0 km/h (0 Bft)
13.07.2020 02:02 6,0 C 6,5 C 16,3 C 86 % 1026,0 hPa 0,0 l/m 0,2 km/h (0 Bft) S-SO 157 3,8 C 6,0 C 3,3 km/h (1 Bft)
13.07.2020 02:00 6,0 C 6,4 C 16,3 C 86 % 1026,0 hPa 0,0 l/m 0,0 km/h (0 Bft) SO 135 3,8 C 6,0 C 0,0 km/h (0 Bft)
13.07.2020 01:58 6,1 C 6,5 C 16,3 C 86 % 1026,2 hPa 0,0 l/m 0,2 km/h (0 Bft) N 360 3,9 C 6,1 C 0,0 km/h (0 Bft)
13.07.2020 01:56 6,5 C 6,5 C 16,4 C 86 % 1026,2 hPa 0,0 l/m 0,2 km/h (0 Bft) O-NO 67 4,3 C 6,5 C 0,0 km/h (0 Bft)
13.07.2020 01:54 6,5 C 6,6 C 16,4 C 86 % 1026,2 hPa 0,0 l/m 0,2 km/h (0 Bft) NO 45 4,3 C 6,5 C 0,0 km/h (0 Bft)
13.07.2020 01:52 6,4 C 6,6 C 16,4 C 86 % 1026,2 hPa 0,0 l/m 0,2 km/h (0 Bft) NO 45 4,2 C 6,4 C 0,0 km/h (0 Bft)
13.07.2020 01:50 6,3 C 6,7 C 16,4 C 86 % 1026,2 hPa 0,0 l/m 0,2 km/h (0 Bft) NO 45 4,1 C 6,3 C 0,0 km/h (0 Bft)
13.07.2020 01:48 6,4 C 6,5 C 16,4 C 86 % 1026,2 hPa 0,0 l/m 0,0 km/h (0 Bft) O-NO 67 4,2 C 6,4 C 2,1 km/h (1 Bft)
13.07.2020 01:46 6,4 C 6,5 C 16,4 C 86 % 1026,2 hPa 0,0 l/m 0,0 km/h (0 Bft) SO 135 4,2 C 6,4 C 0,0 km/h (0 Bft)
13.07.2020 01:44 6,4 C 6,6 C 16,4 C 86 % 1026,2 hPa 0,0 l/m 0,2 km/h (0 Bft) SO 135 4,2 C 6,4 C 0,0 km/h (0 Bft)
13.07.2020 01:42 6,3 C 6,6 C 16,4 C 86 % 1026,2 hPa 0,0 l/m 0,5 km/h (0 Bft) SO 135 4,1 C 6,3 C 0,0 km/h (0 Bft)
13.07.2020 01:40 6,3 C 6,6 C 16,4 C 86 % 1026,2 hPa 0,0 l/m 0,5 km/h (0 Bft) NW 315 4,1 C 6,3 C 0,0 km/h (0 Bft)
13.07.2020 01:38 6,4 C 6,7 C 16,4 C 86 % 1026,2 hPa 0,0 l/m 0,5 km/h (0 Bft) NO 45 4,2 C 6,4 C 0,0 km/h (0 Bft)
13.07.2020 01:36 6,4 C 6,6 C 16,5 C 86 % 1026,2 hPa 0,0 l/m 0,5 km/h (0 Bft) N-NO 22 4,2 C 6,4 C 0,0 km/h (0 Bft)
13.07.2020 01:34 6,3 C 6,6 C 16,5 C 86 % 1026,2 hPa 0,0 l/m 0,5 km/h (0 Bft) O-SO 112 4,1 C 6,3 C 1,9 km/h (1 Bft)
13.07.2020 01:32 6,3 C 6,6 C 16,5 C 86 % 1026,2 hPa 0,0 l/m 0,2 km/h (0 Bft) S 180 4,1 C 6,3 C 2,5 km/h (1 Bft)
13.07.2020 01:30 6,3 C 6,6 C 16,5 C 86 % 1026,2 hPa 0,0 l/m 0,0 km/h (0 Bft) S-SW 202 4,1 C 6,3 C 0,0 km/h (0 Bft)
13.07.2020 01:28 6,4 C 6,6 C 16,5 C 86 % 1026,2 hPa 0,0 l/m 0,0 km/h (0 Bft) S-SW 202 4,2 C 6,4 C 0,0 km/h (0 Bft)
13.07.2020 01:26 6,4 C 6,6 C 16,4 C 86 % 1026,2 hPa 0,0 l/m 0,3 km/h (0 Bft) NO 45 4,2 C 6,4 C 0,0 km/h (0 Bft)
13.07.2020 01:24 6,3 C 6,6 C 16,4 C 85 % 1026,2 hPa 0,0 l/m 0,6 km/h (0 Bft) SO 135 4,0 C 6,3 C 0,0 km/h (0 Bft)
13.07.2020 01:22 6,4 C 6,7 C 16,4 C 85 % 1026,2 hPa 0,0 l/m 0,6 km/h (0 Bft) S-SO 157 4,1 C 6,4 C 0,0 km/h (0 Bft)
13.07.2020 01:20 6,4 C 6,7 C 16,4 C 85 % 1026,2 hPa 0,0 l/m 0,6 km/h (0 Bft) S-SO 157 4,1 C 6,4 C 0,0 km/h (0 Bft)
13.07.2020 01:18 6,6 C 6,8 C 16,4 C 85 % 1026,2 hPa 0,0 l/m 0,6 km/h (0 Bft) SO 135 4,3 C 6,6 C 0,0 km/h (0 Bft)
13.07.2020 01:16 6,7 C 6,7 C 16,4 C 85 % 1026,2 hPa 0,0 l/m 0,3 km/h (0 Bft) O-NO 67 4,4 C 6,7 C 3,7 km/h (1 Bft)
13.07.2020 01:14 6,6 C 6,6 C 16,5 C 85 % 1026,2 hPa 0,0 l/m 0,0 km/h (0 Bft) O-NO 67 4,3 C 6,6 C 2,5 km/h (1 Bft)
13.07.2020 01:12 6,6 C 6,6 C 16,5 C 85 % 1026,2 hPa 0,0 l/m 0,0 km/h (0 Bft) O-NO 67 4,3 C 6,6 C 0,0 km/h (0 Bft)
13.07.2020 01:10 6,5 C 6,7 C 16,5 C 85 % 1026,2 hPa 0,0 l/m 0,0 km/h (0 Bft) O-SO 112 4,2 C 6,5 C 0,0 km/h (0 Bft)
13.07.2020 01:08 6,5 C 6,7 C 16,5 C 85 % 1026,2 hPa 0,0 l/m 0,0 km/h (0 Bft) N 360 4,2 C 6,5 C 0,0 km/h (0 Bft)
13.07.2020 01:06 6,6 C 6,8 C 16,5 C 85 % 1026,2 hPa 0,0 l/m 0,0 km/h (0 Bft) SO 135 4,3 C 6,6 C 0,0 km/h (0 Bft)
13.07.2020 01:04 6,7 C 6,7 C 16,5 C 85 % 1026,2 hPa 0,0 l/m 0,0 km/h (0 Bft) NW 315 4,4 C 6,7 C 0,0 km/h (0 Bft)
13.07.2020 01:02 6,7 C 6,7 C 16,5 C 85 % 1026,2 hPa 0,0 l/m 0,0 km/h (0 Bft) N-NO 22 4,4 C 6,7 C 0,0 km/h (0 Bft)
13.07.2020 01:00 6,7 C 6,8 C 16,5 C 85 % 1026,2 hPa 0,0 l/m 0,0 km/h (0 Bft) O-NO 67 4,4 C 6,7 C 0,0 km/h (0 Bft)
13.07.2020 00:58 6,6 C 6,8 C 16,5 C 85 % 1026,1 hPa 0,0 l/m 0,0 km/h (0 Bft) N-NO 22 4,3 C 6,6 C 0,0 km/h (0 Bft)
13.07.2020 00:56 6,7 C 6,9 C 16,5 C 85 % 1026,1 hPa 0,0 l/m 0,0 km/h (0 Bft) O 90 4,4 C 6,7 C 0,0 km/h (0 Bft)
13.07.2020 00:54 6,7 C 7,0 C 16,6 C 85 % 1026,1 hPa 0,0 l/m 0,0 km/h (0 Bft) S-SW 202 4,4 C 6,7 C 0,0 km/h (0 Bft)
13.07.2020 00:52 6,7 C 7,0 C 16,6 C 85 % 1026,1 hPa 0,0 l/m 0,0 km/h (0 Bft) S-SW 202 4,4 C 6,7 C 0,0 km/h (0 Bft)
13.07.2020 00:50 6,6 C 7,0 C 16,6 C 85 % 1026,1 hPa 0,0 l/m 0,2 km/h (0 Bft) SO 135 4,3 C 6,6 C 0,0 km/h (0 Bft)
13.07.2020 00:48 6,6 C 7,1 C 16,6 C 85 % 1026,1 hPa 0,0 l/m 0,2 km/h (0 Bft) S 180 4,3 C 6,6 C 0,0 km/h (0 Bft)
13.07.2020 00:46 6,8 C 7,1 C 16,6 C 85 % 1026,1 hPa 0,0 l/m 0,2 km/h (0 Bft) S 180 4,5 C 6,8 C 0,0 km/h (0 Bft)
13.07.2020 00:44 6,8 C 7,1 C 16,6 C 84 % 1026,1 hPa 0,0 l/m 0,2 km/h (0 Bft) O 90 4,3 C 6,8 C 0,0 km/h (0 Bft)
13.07.2020 00:42 6,9 C 7,1 C 16,6 C 84 % 1026,1 hPa 0,0 l/m 0,2 km/h (0 Bft) S 180 4,4 C 6,9 C 0,0 km/h (0 Bft)
13.07.2020 00:40 6,9 C 7,1 C 16,6 C 84 % 1026,1 hPa 0,0 l/m 0,0 km/h (0 Bft) O 90 4,4 C 6,9 C 1,9 km/h (1 Bft)
13.07.2020 00:38 6,8 C 7,3 C 16,6 C 84 % 1026,2 hPa 0,0 l/m 0,0 km/h (0 Bft) O 90 4,3 C 6,8 C 0,0 km/h (0 Bft)
13.07.2020 00:36 6,9 C 7,1 C 16,6 C 84 % 1026,2 hPa 0,0 l/m 0,0 km/h (0 Bft) O-NO 67 4,4 C 6,9 C 0,0 km/h (0 Bft)
13.07.2020 00:34 6,9 C 7,1 C 16,7 C 84 % 1026,2 hPa 0,0 l/m 0,0 km/h (0 Bft) N-NO 22 4,4 C 6,9 C 0,0 km/h (0 Bft)
13.07.2020 00:32 6,9 C 7,1 C 16,7 C 84 % 1026,2 hPa 0,0 l/m 0,0 km/h (0 Bft) N-NO 22 4,4 C 6,9 C 0,0 km/h (0 Bft)
13.07.2020 00:30 6,9 C 7,1 C 16,7 C 84 % 1026,2 hPa 0,0 l/m 0,0 km/h (0 Bft) O 90 4,4 C 6,9 C 0,0 km/h (0 Bft)
13.07.2020 00:28 6,9 C 7,1 C 16,7 C 84 % 1026,2 hPa 0,0 l/m 0,2 km/h (0 Bft) W 270 4,4 C 6,9 C 0,0 km/h (0 Bft)
13.07.2020 00:26 6,8 C 7,1 C 16,7 C 84 % 1026,2 hPa 0,0 l/m 0,2 km/h (0 Bft) W-SW 247 4,3 C 6,8 C 0,0 km/h (0 Bft)
13.07.2020 00:24 6,9 C 7,3 C 16,7 C 84 % 1026,2 hPa 0,0 l/m 0,2 km/h (0 Bft) N-NO 22 4,4 C 6,9 C 0,0 km/h (0 Bft)
13.07.2020 00:22 6,9 C 7,1 C 16,7 C 84 % 1026,2 hPa 0,0 l/m 0,2 km/h (0 Bft) NO 45 4,4 C 6,9 C 0,0 km/h (0 Bft)
13.07.2020 00:20 6,9 C 7,3 C 16,7 C 84 % 1026,2 hPa 0,0 l/m 0,2 km/h (0 Bft) S 180 4,4 C 6,9 C 0,0 km/h (0 Bft)
13.07.2020 00:18 6,9 C 7,3 C 16,7 C 84 % 1026,1 hPa 0,0 l/m 0,2 km/h (0 Bft) S-SO 157 4,4 C 6,9 C 1,9 km/h (1 Bft)
13.07.2020 00:16 7,0 C 7,1 C 16,7 C 84 % 1026,1 hPa 0,0 l/m 0,0 km/h (0 Bft) SW 225 4,5 C 7,0 C 0,0 km/h (0 Bft)
13.07.2020 00:14 7,1 C 7,3 C 16,8 C 84 % 1026,1 hPa 0,0 l/m 0,0 km/h (0 Bft) O-NO 67 4,6 C 7,1 C 0,0 km/h (0 Bft)
13.07.2020 00:12 7,2 C 7,3 C 16,8 C 84 % 1026,1 hPa 0,0 l/m 0,0 km/h (0 Bft) O 90 4,7 C 7,2 C 0,0 km/h (0 Bft)
13.07.2020 00:10 7,3 C 7,4 C 16,8 C 83 % 1026,1 hPa 0,0 l/m 0,2 km/h (0 Bft) S-SO 157 4,6 C 7,3 C 0,0 km/h (0 Bft)
13.07.2020 00:08 7,3 C 7,4 C 16,8 C 83 % 1026,1 hPa 0,0 l/m 0,2 km/h (0 Bft) S-SO 157 4,6 C 7,3 C 0,0 km/h (0 Bft)
13.07.2020 00:06 7,3 C 7,4 C 16,8 C 83 % 1026,1 hPa 0,0 l/m 0,2 km/h (0 Bft) S-SO 157 4,6 C 7,3 C 0,0 km/h (0 Bft)
13.07.2020 00:04 7,3 C 7,4 C 16,8 C 83 % 1026,1 hPa 0,0 l/m 0,2 km/h (0 Bft) S-SO 157 4,6 C 7,3 C 0,0 km/h (0 Bft)
13.07.2020 00:02 7,3 C 7,4 C 16,8 C 83 % 1026,1 hPa 0,0 l/m 0,2 km/h (0 Bft) S-SO 157 4,6 C 7,3 C 0,0 km/h (0 Bft)
13.07.2020 00:00 7,5 C 7,4 C 16,8 C 83 % 1026,1 hPa 0,0 l/m 0,2 km/h (0 Bft) SO 135 4,8 C 7,5 C 0,0 km/h (0 Bft)
_ Min-Zeit 05:40 04:38 08:34 09:48 09:40 - 00:12 - - 05:40 05:40 00:00
Minimum _ 5,0 C 5,1 C 14,9 C 63 % 1024,8 hPa - 0,0 km/h (0 Bft) - - 3,3 C 5,0 C 0,0 km/h (0 Bft)
_ Max-Zeit 09:38 09:42 00:00 06:12 00:20 00:00 09:50 - - 09:20 09:38 09:36
Maximum _ 17,5 C 24,7 C 16,8 C 90 % 1026,2 hPa 0,0 l/m 6,3 km/h
W-SW (2 Bft)
- - 12,3 C 17,5 C 13,7 km/h
S-SO (3 Bft)
Durchschnitt _ 7,7 C 9,5 C 15,6 C 86 % 1025,5 hPa #0,0 l/m 0,4 km/h (0 Bft) W - 5,5 C 7,7 C 0,8 km/h (0 Bft)